{"data":{"norad_id":65578,"epoch":"2026-05-25T02:27:21.616992Z","epoch_age_seconds":62251,"freshness":"FRESH","line1":"1 65578U 25203P   26145.10233353  .00000198  00000+0  16662-3 0  9992","line2":"2 65578  81.3045  31.9486 0008077 253.9098 106.1170 13.84432937 35517","mean_motion":13.84432937,"eccentricity":0.0008077,"inclination_deg":81.3045,"raan_deg":31.9486,"arg_perigee_deg":253.9098,"mean_anomaly_deg":106.117,"bstar":0.00016662,"rev_number":3551,"period_min":104.01370564907,"perigee_km":942.28815280814,"apogee_km":954.1231267084,"semimajor_km":7326.3426397583,"source":"CELESTRAK","updated_at":"2026-05-25T13:38:25.171108Z"}}